• în Republica Moldova
  • Lista ţărilor
  • Pe 7 zile
  • Temperatura apei
  • Hartă satelitară
  • Meteo pe hartă
  • Widget-uri
  • user-avatar
    Intrare

    Meteo pe oră la Ondjiwa

    Astăzi, 28 Martie, Marţi

    Timp Temperatura Precipitaţii Vânt Presiune Umiditate
    00:00 +22°C° 0 mm 3 m/s 669 mmHg 80%
    01:00 +22°C° 0 mm 3 m/s 669 mmHg 80%
    02:00 +22°C° 0,1 mm 3 m/s 669 mmHg 80%
    03:00 +21°C° 0,1 mm 3 m/s 668 mmHg 80%
    04:00 +21°C° 0,1 mm 3 m/s 668 mmHg 79%
    05:00 +21°C° 0,2 mm 2 m/s 668 mmHg 80%
    06:00 +21°C° 0,2 mm 2 m/s 669 mmHg 82%
    07:00 +20°C° 0 mm 2 m/s 669 mmHg 81%
    08:00 +22°C° 0,1 mm 3 m/s 669 mmHg 73%
    09:00 +25°C° 0,1 mm 4 m/s 670 mmHg 65%
    10:00 +26°C° 0,1 mm 4 m/s 670 mmHg 56%
    11:00 +28°C° 0 mm 5 m/s 670 mmHg 48%
    12:00 +30°C° 0 mm 5 m/s 670 mmHg 40%
    13:00 +33°C° 0 mm 5 m/s 669 mmHg 31%
    14:00 +33°C° 0 mm 5 m/s 669 mmHg 32%
    15:00 +33°C° 0 mm 5 m/s 668 mmHg 32%
    16:00 +33°C° 0 mm 4 m/s 668 mmHg 32%
    17:00 +30°C° 0 mm 4 m/s 668 mmHg 38%
    18:00 +28°C° 0 mm 3 m/s 667 mmHg 43%
    19:00 +26°C° 0 mm 2 m/s 667 mmHg 49%
    20:00 +25°C° 0 mm 2 m/s 668 mmHg 51%
    21:00 +25°C° 0 mm 2 m/s 668 mmHg 52%
    22:00 +24°C° 0 mm 2 m/s 668 mmHg 54%
    23:00 +24°C° 0 mm 2 m/s 668 mmHg 55%

    Mâine, 29 Martie, Miercuri

    Timp Temperatura Precipitaţii Vânt Presiune Umiditate
    00:00 +23°C° 0 mm 2 m/s 668 mmHg 57%
    01:00 +23°C° 0 mm 2 m/s 668 mmHg 58%
    02:00 +21°C° 0 mm 2 m/s 668 mmHg 60%
    03:00 +21°C° 0 mm 2 m/s 667 mmHg 62%
    04:00 +20°C° 0 mm 2 m/s 667 mmHg 63%
    05:00 +21°C° 0 mm 2 m/s 667 mmHg 64%
    06:00 +21°C° 0 mm 2 m/s 668 mmHg 65%
    07:00 +21°C° 0 mm 2 m/s 668 mmHg 65%
    08:00 +25°C° 0 mm 3 m/s 669 mmHg 54%
    09:00 +27°C° 0 mm 5 m/s 669 mmHg 43%
    10:00 +30°C° 0 mm 6 m/s 670 mmHg 31%
    11:00 +32°C° 0 mm 6 m/s 670 mmHg 29%
    12:00 +33°C° 0 mm 6 m/s 669 mmHg 27%
    13:00 +34°C° 0 mm 5 m/s 669 mmHg 25%
    14:00 +34°C° 0 mm 5 m/s 668 mmHg 25%
    15:00 +34°C° 0 mm 5 m/s 667 mmHg 26%
    16:00 +34°C° 0 mm 4 m/s 667 mmHg 26%
    17:00 +30°C° 0 mm 4 m/s 667 mmHg 31%
    18:00 +28°C° 0 mm 3 m/s 666 mmHg 36%
    19:00 +26°C° 0 mm 2 m/s 666 mmHg 41%
    20:00 +25°C° 0 mm 2 m/s 667 mmHg 43%
    21:00 +25°C° 0 mm 2 m/s 667 mmHg 44%
    22:00 +24°C° 0 mm 2 m/s 668 mmHg 45%
    23:00 +22°C° 0 mm 3 m/s 667 mmHg 47%

    Poimâine, 30 Martie, Joi

    Timp Temperatura Precipitaţii Vânt Presiune Umiditate
    00:00 +22°C° 0 mm 3 m/s 667 mmHg 48%
    01:00 +21°C° 0 mm 3 m/s 667 mmHg 50%
    02:00 +21°C° 0 mm 3 m/s 667 mmHg 51%
    03:00 +20°C° 0 mm 3 m/s 667 mmHg 52%
    04:00 +20°C° 0 mm 3 m/s 667 mmHg 53%
    05:00 +20°C° 0 mm 3 m/s 667 mmHg 54%
    06:00 +20°C° 0 mm 3 m/s 668 mmHg 56%
    07:00 +20°C° 0 mm 3 m/s 668 mmHg 57%
    08:00 +23°C° 0 mm 4 m/s 669 mmHg 49%
    09:00 +27°C° 0 mm 5 m/s 670 mmHg 40%
    10:00 +30°C° 0 mm 7 m/s 670 mmHg 32%
    11:00 +32°C° 0 mm 6 m/s 670 mmHg 30%
    12:00 +33°C° 0 mm 5 m/s 669 mmHg 29%
    13:00 +34°C° 0 mm 5 m/s 669 mmHg 27%
    14:00 +34°C° 0 mm 4 m/s 668 mmHg 28%
    15:00 +34°C° 0 mm 4 m/s 668 mmHg 29%
    16:00 +34°C° 0 mm 4 m/s 667 mmHg 29%
    17:00 +31°C° 0 mm 3 m/s 667 mmHg 35%
    18:00 +29°C° 0 mm 3 m/s 667 mmHg 40%
    19:00 +27°C° 0 mm 2 m/s 668 mmHg 46%
    20:00 +26°C° 0 mm 2 m/s 668 mmHg 46%
    21:00 +26°C° 0 mm 2 m/s 669 mmHg 46%
    22:00 +26°C° 0 mm 2 m/s 669 mmHg 47%
    23:00 +25°C° 0 mm 2 m/s 669 mmHg 48%

    31 Martie, Vineri

    Timp Temperatura Precipitaţii Vânt Presiune Umiditate
    00:00 +25°C° 0 mm 2 m/s 669 mmHg 49%
    01:00 +24°C° 0 mm 3 m/s 668 mmHg 50%
    02:00 +24°C° 0 mm 3 m/s 668 mmHg 52%
    03:00 +22°C° 0 mm 3 m/s 668 mmHg 54%
    04:00 +22°C° 0 mm 3 m/s 668 mmHg 56%
    05:00 +22°C° 0 mm 3 m/s 669 mmHg 56%
    06:00 +22°C° 0 mm 3 m/s 669 mmHg 57%
    07:00 +22°C° 0 mm 3 m/s 670 mmHg 58%
    08:00 +25°C° 0 mm 4 m/s 670 mmHg 51%
    09:00 +27°C° 0 mm 5 m/s 671 mmHg 45%
    10:00 +30°C° 0 mm 7 m/s 671 mmHg 39%
    11:00 +32°C° 0 mm 6 m/s 671 mmHg 37%
    12:00 +33°C° 0 mm 5 m/s 670 mmHg 35%
    13:00 +33°C° 0 mm 5 m/s 669 mmHg 33%
    14:00 +33°C° 0 mm 4 m/s 669 mmHg 32%
    15:00 +33°C° 0 mm 4 m/s 669 mmHg 32%
    16:00 +33°C° 0 mm 4 m/s 668 mmHg 32%
    17:00 +30°C° 0 mm 3 m/s 668 mmHg 36%
    18:00 +28°C° 0 mm 3 m/s 668 mmHg 40%
    19:00 +26°C° 0 mm 2 m/s 668 mmHg 44%
    20:00 +26°C° 0 mm 2 m/s 669 mmHg 44%
    21:00 +25°C° 0 mm 2 m/s 669 mmHg 44%
    22:00 +25°C° 0 mm 2 m/s 669 mmHg 44%
    23:00 +24°C° 0 mm 2 m/s 669 mmHg 45%

    1 Aprilie, Sâmbătă

    Timp Temperatura Precipitaţii Vânt Presiune Umiditate
    00:00 +23°C° 0 mm 2 m/s 669 mmHg 47%
    01:00 +23°C° 0 mm 2 m/s 668 mmHg 48%
    02:00 +21°C° 0 mm 2 m/s 668 mmHg 50%
    03:00 +21°C° 0 mm 2 m/s 668 mmHg 52%
    04:00 +20°C° 0 mm 2 m/s 668 mmHg 54%
    05:00 +20°C° 0 mm 2 m/s 668 mmHg 55%
    06:00 +20°C° 0 mm 2 m/s 669 mmHg 57%
    07:00 +21°C° 0 mm 3 m/s 670 mmHg 58%
    08:00 +24°C° 0 mm 3 m/s 670 mmHg 50%
    09:00 +27°C° 0 mm 4 m/s 671 mmHg 42%
    10:00 +30°C° 0 mm 5 m/s 671 mmHg 34%
    11:00 +32°C° 0 mm 5 m/s 671 mmHg 31%
    12:00 +33°C° 0 mm 5 m/s 670 mmHg 28%
    13:00 +35°C° 0 mm 4 m/s 669 mmHg 25%
    14:00 +34°C° 0 mm 4 m/s 669 mmHg 24%
    15:00 +34°C° 0 mm 4 m/s 668 mmHg 23%
    16:00 +34°C° 0 mm 4 m/s 668 mmHg 23%
    17:00 +31°C° 0 mm 3 m/s 668 mmHg 27%
    18:00 +28°C° 0 mm 3 m/s 668 mmHg 31%
    19:00 +26°C° 0 mm 2 m/s 668 mmHg 35%
    20:00 +25°C° 0 mm 2 m/s 668 mmHg 35%
    21:00 +25°C° 0 mm 2 m/s 668 mmHg 36%
    22:00 +24°C° 0 mm 2 m/s 669 mmHg 36%
    23:00 +23°C° 0 mm 2 m/s 668 mmHg 38%

    2 Aprilie, Duminică

    Timp Temperatura Precipitaţii Vânt Presiune Umiditate
    00:00 +23°C° 0 mm 2 m/s 668 mmHg 39%
    01:00 +21°C° 0 mm 2 m/s 668 mmHg 40%
    02:00 +21°C° 0 mm 2 m/s 668 mmHg 42%
    03:00 +20°C° 0 mm 2 m/s 667 mmHg 44%
    04:00 +19°C° 0 mm 2 m/s 667 mmHg 47%
    05:00 +20°C° 0 mm 2 m/s 668 mmHg 48%
    06:00 +20°C° 0 mm 2 m/s 668 mmHg 49%
    07:00 +20°C° 0 mm 2 m/s 669 mmHg 50%
    08:00 +24°C° 0 mm 3 m/s 670 mmHg 42%
    09:00 +28°C° 0 mm 3 m/s 670 mmHg 34%
    10:00 +32°C° 0 mm 4 m/s 671 mmHg 26%
    11:00 +33°C° 0 mm 4 m/s 670 mmHg 24%
    12:00 +34°C° 0 mm 5 m/s 670 mmHg 22%
    13:00 +35°C° 0 mm 5 m/s 669 mmHg 19%
    14:00 +35°C° 0 mm 4 m/s 669 mmHg 20%
    15:00 +35°C° 0 mm 4 m/s 669 mmHg 20%
    16:00 +35°C° 0 mm 4 m/s 668 mmHg 20%
    17:00 +31°C° 0 mm 3 m/s 668 mmHg 25%
    18:00 +28°C° 0 mm 2 m/s 668 mmHg 29%
    19:00 +26°C° 0 mm 2 m/s 667 mmHg 34%
    20:00 +25°C° 0 mm 2 m/s 668 mmHg 35%
    21:00 +25°C° 0 mm 2 m/s 668 mmHg 36%
    22:00 +24°C° 0 mm 2 m/s 668 mmHg 36%
    23:00 +24°C° 0 mm 2 m/s 668 mmHg 38%
    Arată mai mult